This demonstration page uses our WeatherBlox Daily Observations layout. Learn more.

Left ArrowRight Arrow

34.74481, -87.66753

Hourly Observations for June 11, 2020

Temp ( °F °C ) Dew Point ( °F °C ) Humidity (%) Winds ( mph kmh ) Pressure ( in mb ) Visibility ( mi km ) Precip ( " mm )
12:53 am 00:53 Clear 66 18.9 61 16.1 84 84 Calm 30.06 1018 10 16 0.00 0.00
1:53 am 01:53 Clear 66 18.9 60 15.6 81 81 WNW 3 6 30.07 1018 10 16 0.00 0.00
2:53 am 02:53 Clear 66 18.9 60 15.6 81 81 NW 7 11 30.08 1019 10 16 0.00 0.00
3:53 am 03:53 Clear 65 18.3 60 15.6 84 84 NNW 3 6 30.09 1019 10 16 0.00 0.00
4:53 am 04:53 Clear 64 17.8 60 15.6 87 87 NNW 3 6 30.11 1020 10 16 0.00 0.00
5:53 am 05:53 Sunny 64 17.8 60 15.6 87 87 Calm 30.13 1020 10 16 0.00 0.00
6:53 am 06:53 Sunny 68 20 61 16.1 78 78 NNW 5 7 30.15 1021 10 16 0.00 0.00
7:53 am 07:53 Sunny 72 22.2 61 16.1 68 68 N 6 9 30.17 1022 10 16 0.00 0.00
8:53 am 08:53 Sunny 75 23.9 60 15.6 60 60 NNW 9 15 30.18 1022 10 16 0.00 0.00
9:53 am 09:53 Sunny 77 25 57 13.9 50 50 N 9 15 30.19 1022 10 16 0.00 0.00
10:53 am 10:53 Sunny 78 25.6 56 13.3 47 47 NNW 7 11 30.19 1022 10 16 0.00 0.00
11:53 am 11:53 Sunny 79 26.1 56 13.3 45 45 NNE 7 11 30.19 1023 10 16 0.00 0.00
12:53 pm 12:53 Sunny 81 27.2 56 13.3 42 42 N 5 7 30.19 1022 10 16 0.00 0.00
1:53 pm 13:53 Sunny 83 28.3 54 12.2 37 37 NNW 6 9 30.19 1022 10 16 0.00 0.00
2:53 pm 14:53 Sunny 84 28.9 56 13.3 38 38 NW 7 11 30.18 1022 10 16 0.00 0.00
3:53 pm 15:53 Sunny 84 28.9 56 13.3 38 38 NNW 9 15 30.17 1022 10 16 0.00 0.00
4:53 pm 16:53 Sunny 83 28.3 56 13.3 40 40 N 10 17 30.17 1022 10 16 0.00 0.00
5:53 pm 17:53 Sunny 83 28.3 55 12.8 38 38 N 9 15 30.16 1022 10 16 0.00 0.00
6:53 pm 18:53 Sunny 81 27.2 56 13.3 42 42 VRB 6 9 30.17 1022 10 16 0.00 0.00
7:53 pm 19:53 Sunny 77 25 56 13.3 48 48 N 5 7 30.18 1022 10 16 0.00 0.00
8:53 pm 20:53 Clear 74 23.3 57 13.9 56 56 N 3 6 30.19 1022 10 16 0.00 0.00
9:53 pm 21:53 Clear 73 22.8 56 13.3 55 55 VRB 3 6 30.20 1023 10 16 0.00 0.00
10:53 pm 22:53 Clear 71 21.7 57 13.9 61 61 N 5 7 30.21 1023 10 16 0.00 0.00
11:53 pm 23:53 Clear 71 21.7 56 13.3 59 59 N 5 7 30.21 1023 10 16 0.00 0.00

Powered by AerisWeather